Theta_e
306 306 306 306 306 306 307 309 310 310 311 310 309 309 308 308 310 312 312 312 313 313 313 312 311 311 310 311 312 314 315 315 315 314 313 310 311 313 313 315 315 315 315 316 316 316 316 316 316 316 316 315 315 316 314 314 314 313 318 319 314 313 314 316 317 315 314 314 314 311 316 320 325 330 329 332 334 335 337 337 337 336 335 336 336 336 335 335
306 306 306 306 306 306 306 307 309 310 310 311 310 309 309 309 309 310 312 312 313 313 313 312 311 311 310 311 313 314 315 315 315 314 312 310 311 312 314 315 315 316 316 316 316 316 316 316 316 317 317 316 316 315 314 314 314 314 316 316 314 315 313 313 314 313 312 313 313 311 314 313 318 322 323 334 336 334 337 336 335 335 334 334 333 333 332 332
306 306 306 306 306 306 306 307 308 309 309 310 311 310 310 309 309 309 310 311 312 312 312 311 311 311 310 312 312 314 316 316 316 315 313 311 310 312 314 316 316 316 316 316 316 316 316 316 316 317 317 317 316 314 313 313 313 311 312 315 316 315 312 312 313 312 313 313 313 311 313 313 312 315 323 334 332 331 337 335 332 334 332 330 328 327 326 325
306 306 306 306 306 306 306 307 308 309 309 309 310 311 311 310 309 309 309 309 310 310 310 311 311 310 311 312 312 314 316 317 317 316 315 312 312 314 315 316 316 316 316 316 316 316 316 316 316 317 316 315 314 314 313 312 312 310 311 315 313 310 313 315 313 313 314 313 314 312 313 314 312 315 325 329 327 326 332 333 331 332 330 326 323 321 320 319
306 306 306 306 306 306 306 307 308 308 309 309 311 311 311 311 310 309 309 309 309 309 310 310 310 310 311 312 313 314 317 319 317 316 316 314 313 315 316 316 316 316 316 316 316 316 315 316 316 316 315 314 314 314 314 312 311 310 311 312 310 309 314 315 313 314 313 313 315 313 314 313 311 317 320 322 322 322 330 333 330 328 324 320 318 317 317 316
306 306 306 306 306 306 306 307 307 308 309 310 311 312 311 311 311 311 310 309 309 309 310 310 310 311 311 312 313 315 317 319 316 315 316 315 315 315 316 316 316 316 315 316 316 316 316 316 316 315 314 314 314 314 314 312 311 313 313 311 310 311 314 314 314 314 313 314 315 313 315 313 314 321 324 326 327 326 331 330 325 322 318 317 316 316 316 317
306 306 307 306 306 306 306 307 308 309 310 311 311 312 311 311 311 312 311 310 310 310 310 310 310 311 312 312 314 315 316 317 316 315 314 314 315 315 316 315 316 316 316 316 315 316 316 316 316 314 314 315 315 314 314 312 311 315 316 313 313 313 314 314 314 314 313 314 314 314 314 310 316 327 329 331 331 331 330 325 321 319 318 317 316 317 317 318
306 306 306 307 306 306 307 307 308 310 311 311 311 311 311 310 311 312 312 311 310 310 311 311 311 311 312 312 314 316 315 316 316 314 312 313 315 315 316 315 316 316 315 316 316 316 316 316 316 314 315 315 315 314 314 316 315 316 316 314 314 315 315 315 315 315 315 315 315 314 314 315 322 329 329 331 332 330 326 322 320 320 319 318 316 317 317 316
305 306 306 307 307 306 307 307 308 311 311 310 310 310 310 310 310 312 312 311 310 310 311 311 311 311 312 313 315 316 315 316 316 314 312 312 315 315 315 315 315 316 315 316 315 316 315 315 315 315 316 314 315 315 315 318 319 316 315 314 315 316 315 315 315 316 316 316 315 312 315 320 326 329 330 330 331 328 323 321 320 318 316 315 314 314 314 314
305 305 306 307 307 307 307 307 309 311 310 310 312 313 312 310 310 310 310 310 310 310 311 312 311 312 312 313 316 317 316 315 315 316 314 313 314 314 315 315 315 315 315 315 315 315 315 315 315 316 316 315 315 315 314 317 318 315 314 315 316 317 317 316 315 317 317 316 315 313 314 316 317 327 332 329 328 324 320 320 318 316 314 314 314 314 315 315
305 305 306 306 307 307 306 308 310 311 310 311 314 316 316 313 310 308 309 309 310 311 312 312 312 312 313 314 315 316 317 316 315 315 315 314 315 315 315 315 315 315 315 315 315 315 315 315 315 315 316 315 315 314 314 315 316 315 315 316 317 317 319 318 317 318 318 317 316 314 315 315 316 327 332 328 325 322 318 318 316 315 315 316 317 317 318 318
305 305 306 306 307 307 307 309 311 311 312 314 316 318 319 316 311 308 309 310 311 312 312 312 312 312 314 315 316 316 317 316 315 315 314 315 315 315 315 315 315 315 315 315 315 315 315 316 315 316 316 315 315 315 315 316 317 317 317 320 322 322 321 318 319 319 317 319 316 315 319 318 319 326 328 326 324 321 317 317 317 318 320 320 320 320 321 321
307 306 306 306 307 307 307 310 312 314 316 318 318 319 320 316 311 310 310 311 312 312 312 312 312 313 315 317 317 316 317 316 315 315 315 315 315 315 314 314 315 315 315 315 316 316 316 316 315 315 315 315 316 315 315 316 317 319 317 322 328 328 323 316 318 320 317 319 317 317 323 319 320 325 326 325 323 320 318 319 321 322 322 323 323 323 322 322
312 309 306 306 308 307 308 311 314 317 318 319 319 318 319 315 310 311 311 311 312 312 312 313 313 315 316 317 317 317 316 316 315 315 315 315 315 315 314 314 314 314 315 315 316 315 315 316 316 315 315 316 315 315 320 320 321 324 318 322 329 324 322 319 317 319 319 318 317 322 329 322 321 324 324 323 322 320 320 321 322 323 323 323 322 321 321 320
316 314 309 306 307 307 309 312 315 318 319 319 318 317 318 315 312 312 313 313 313 312 313 313 314 315 316 317 318 317 316 316 315 315 315 315 315 315 315 315 314 314 315 316 315 315 316 315 315 315 315 315 317 322 327 327 327 327 320 323 327 321 323 324 316 316 320 318 316 321 330 324 320 322 323 323 321 320 321 322 322 323 323 322 320 319 319 319
316 316 314 308 306 307 309 313 316 318 318 318 318 317 318 318 315 314 315 316 315 314 314 315 315 315 316 317 317 317 317 316 316 316 315 315 315 315 315 315 315 315 315 315 315 315 315 315 315 315 315 316 322 330 332 330 332 330 325 324 324 321 322 324 317 314 317 320 318 318 324 321 318 320 322 322 321 320 321 321 322 323 323 321 319 318 319 319
316 315 315 311 307 307 310 314 317 318 318 318 318 317 318 319 318 316 316 317 316 316 316 316 316 315 316 317 317 316 317 316 316 316 316 315 315 315 316 315 315 315 315 316 316 315 315 315 314 314 317 319 323 332 331 326 330 329 327 324 320 322 321 322 323 316 314 320 320 318 320 318 316 317 319 321 321 320 320 321 322 323 322 321 319 318 318 319
318 315 315 314 309 306 310 315 317 318 318 318 318 317 318 318 318 317 317 317 316 316 318 318 318 318 317 316 317 317 317 317 316 316 315 315 316 315 315 315 315 315 316 315 314 315 314 314 316 319 325 325 325 334 332 325 326 324 326 325 320 321 320 322 326 319 318 322 319 317 318 318 317 316 317 319 320 320 321 321 322 322 322 320 318 318 318 319
319 316 314 314 310 306 309 314 317 318 318 319 318 318 317 317 318 317 317 317 317 318 319 318 318 320 318 316 318 317 317 317 315 316 315 315 316 315 315 315 315 315 315 316 316 314 314 316 318 321 325 324 324 331 330 325 326 324 325 327 325 324 322 323 325 320 320 324 321 319 319 318 319 319 317 318 320 321 320 321 322 322 322 320 319 318 319 319
318 316 313 315 311 306 308 313 317 318 318 318 318 318 318 318 320 321 318 317 317 318 318 317 316 317 317 317 318 318 317 317 315 316 315 316 316 315 316 314 315 317 314 316 317 311 315 322 320 320 322 320 322 324 321 319 322 322 323 327 329 326 323 322 322 318 317 322 322 319 319 320 322 322 319 317 319 320 320 321 321 322 322 321 319 319 319 319
315 313 313 315 312 306 308 313 317 318 318 318 317 318 319 318 322 323 319 318 318 318 317 317 316 316 317 318 318 317 317 317 316 316 316 316 317 316 316 315 318 319 314 312 314 315 322 326 321 321 320 318 319 319 319 321 323 323 324 326 326 325 323 319 319 318 318 323 321 318 321 322 321 322 319 316 318 319 319 320 321 322 322 321 320 319 319 319
311 311 313 315 311 307 307 313 318 318 317 318 317 318 318 317 319 320 319 319 319 318 317 317 317 317 317 318 318 317 317 317 316 316 316 316 317 317 315 317 320 318 315 316 320 325 328 325 320 317 314 316 318 319 322 325 325 325 324 324 324 323 321 320 321 321 320 324 324 319 321 323 322 322 320 318 318 318 319 319 321 321 321 322 320 319 319 318
309 310 314 315 310 307 307 312 318 317 317 318 316 317 317 316 316 317 318 319 319 318 318 318 318 317 318 318 318 317 316 316 316 316 317 316 316 317 314 317 322 319 318 323 327 328 325 319 317 312 312 319 321 321 324 325 324 323 320 321 322 321 320 323 324 321 319 321 323 322 322 322 323 322 319 319 318 318 318 317 319 321 321 322 320 319 318 317
308 311 315 314 309 307 308 312 317 317 317 317 316 317 317 316 316 316 317 319 320 320 318 317 318 318 318 317 316 317 316 315 316 316 317 318 316 317 315 315 321 320 319 324 327 328 322 315 313 312 316 321 321 321 323 325 323 321 321 322 321 320 321 322 321 321 321 320 320 323 322 321 323 323 320 320 318 318 317 316 318 321 320 321 320 318 317 317
309 313 316 313 308 307 309 313 317 316 316 317 316 317 317 315 316 317 318 321 323 322 319 316 317 318 317 317 316 316 316 315 316 317 317 317 316 316 315 314 318 320 319 320 322 322 317 312 312 318 322 321 322 321 318 320 323 323 325 324 319 318 319 321 320 322 325 321 318 320 322 323 325 324 324 325 322 318 315 314 316 320 320 320 320 318 317 317
311 315 315 312 307 307 311 314 315 315 316 316 316 317 315 315 320 320 321 327 327 320 318 318 316 318 318 317 316 315 318 318 316 317 317 317 316 316 316 315 314 317 318 318 319 318 315 312 315 320 322 323 324 319 314 319 325 322 319 318 318 318 319 322 321 321 324 321 316 317 322 325 323 321 323 326 323 319 317 314 314 316 318 318 319 318 317 317
313 316 315 312 307 307 311 313 314 317 318 317 316 317 314 316 322 321 323 332 330 318 317 319 316 317 317 316 316 317 320 319 316 317 317 316 317 315 318 317 315 315 314 316 319 317 315 316 318 320 322 324 322 317 315 319 322 318 313 316 320 317 318 322 322 322 323 320 317 320 323 324 323 321 322 324 321 319 320 318 314 313 315 317 318 317 316 317
314 316 315 311 307 309 312 313 316 317 317 317 316 315 314 317 323 323 326 330 324 317 317 319 318 318 317 317 316 316 318 318 317 318 316 316 317 315 317 316 316 315 311 316 323 316 314 318 319 321 323 320 317 315 314 315 317 315 313 317 320 316 319 323 325 326 322 319 321 322 320 321 325 325 321 322 321 318 320 320 315 312 314 317 317 316 316 316
314 315 314 310 307 311 314 315 317 316 316 316 315 315 316 320 323 324 330 328 319 318 319 321 320 317 317 318 316 316 316 316 317 317 316 316 316 316 316 314 314 315 312 316 324 316 313 316 316 321 323 317 315 315 314 316 317 314 312 317 319 317 319 323 326 326 323 322 324 322 318 319 325 325 321 322 321 317 319 318 313 312 314 315 315 315 316 315
314 315 312 308 310 314 315 316 316 316 317 316 315 319 320 324 328 328 330 326 319 320 321 320 319 316 318 320 318 316 315 315 316 316 315 316 315 314 314 312 314 319 318 317 321 317 314 315 314 317 316 313 314 313 313 315 313 313 317 321 321 321 323 325 325 325 328 328 324 320 318 318 322 323 320 321 319 317 320 318 313 313 314 314 314 314 314 315
314 314 310 309 313 316 317 317 316 316 317 316 317 322 323 325 333 334 328 322 321 323 321 320 321 319 320 322 319 316 315 314 313 316 319 318 317 316 315 315 318 325 325 321 322 319 318 319 315 314 312 312 315 313 311 312 310 316 326 325 320 320 324 327 326 325 329 326 321 321 320 319 320 320 319 318 316 316 320 319 315 313 313 313 313 314 313 314
314 312 309 311 316 318 318 317 317 316 317 318 318 322 327 328 330 331 326 320 323 326 321 320 322 319 321 325 321 317 318 316 314 317 321 320 320 318 315 317 318 322 323 320 323 322 319 319 314 313 313 313 318 319 316 318 318 320 327 326 323 321 323 328 326 322 323 320 318 321 321 320 320 319 319 317 315 317 317 315 313 311 311 312 312 313 313 312
313 311 310 315 319 320 320 319 317 316 318 319 318 322 332 333 327 326 327 323 320 322 319 320 322 320 323 327 322 318 319 317 315 316 316 319 322 316 314 316 314 317 320 316 319 322 320 321 318 316 315 313 319 321 318 321 321 320 324 324 325 325 325 328 322 317 318 319 318 320 320 320 321 320 318 316 317 317 313 309 310 309 309 310 311 312 312 311
312 313 316 320 322 321 321 320 316 316 319 319 320 327 331 329 325 323 328 327 322 321 320 320 324 325 325 324 321 319 318 316 317 320 320 323 325 319 320 320 314 319 326 318 316 318 319 322 320 316 314 315 319 318 316 319 318 316 319 320 320 324 326 325 322 319 319 320 320 319 319 320 321 321 320 317 316 315 311 308 309 309 308 308 309 311 311 310
314 318 320 321 321 319 318 315 314 318 320 319 327 334 330 326 325 323 326 328 324 321 320 319 325 331 328 325 323 320 316 316 319 324 324 322 323 319 319 321 315 317 325 320 314 315 317 320 320 314 312 316 318 314 314 320 319 313 315 320 318 319 322 319 316 317 318 320 322 320 319 320 320 320 318 316 314 312 311 309 308 308 308 308 309 310 310 310
316 321 321 321 319 316 314 314 316 320 320 323 333 333 328 327 326 324 324 323 319 319 321 321 325 331 329 327 328 323 317 316 319 323 321 318 319 318 317 320 316 314 321 320 316 317 318 318 319 316 314 315 315 313 312 314 317 317 316 317 313 313 320 319 312 311 314 319 320 317 319 320 318 316 314 313 312 309 309 308 307 308 308 308 309 309 310 309
317 320 320 319 317 315 315 315 319 321 319 327 335 329 326 326 323 324 325 320 316 320 327 326 320 322 325 325 328 327 321 318 320 322 319 317 319 317 318 321 315 312 318 318 315 318 319 319 319 318 317 315 311 311 312 309 313 320 317 314 312 310 317 320 316 314 313 318 320 316 319 320 319 317 313 311 311 309 308 308 306 307 308 308 309 308 309 309
319 321 319 318 317 316 317 318 321 321 320 329 334 328 325 323 319 320 322 318 318 323 330 328 319 318 323 324 324 324 323 322 322 322 319 319 319 316 319 321 315 312 313 312 314 316 317 320 320 318 317 316 315 314 316 313 311 313 311 310 312 313 315 318 318 316 316 318 319 318 319 320 320 320 313 309 310 310 309 309 307 307 307 308 308 308 308 309
320 321 319 317 317 318 318 320 320 320 324 330 332 327 322 323 320 318 319 317 318 321 322 322 319 319 322 323 322 321 321 320 319 320 320 318 317 314 316 318 314 312 309 310 317 316 315 318 318 317 314 313 319 320 320 321 315 312 314 313 315 316 313 313 312 313 318 320 318 318 320 320 323 323 315 309 311 311 311 311 309 307 307 307 308 308 308 308
320 321 319 315 317 319 318 320 319 325 331 327 327 327 321 322 321 318 319 317 315 317 318 319 321 321 321 322 319 317 320 321 318 319 319 317 317 316 315 316 314 313 310 310 316 316 315 316 317 321 319 315 319 319 319 322 316 314 318 317 315 311 309 311 311 310 315 319 318 319 320 322 323 322 316 311 312 312 311 311 308 306 307 307 307 307 308 308
319 324 321 314 318 319 317 320 319 324 331 324 322 326 322 321 322 319 319 318 316 316 317 322 324 323 324 322 318 317 322 324 321 319 318 317 318 319 316 315 314 313 313 314 319 318 317 318 319 321 322 321 321 317 316 319 319 321 320 314 311 309 311 317 315 310 311 314 316 318 320 323 322 320 318 313 310 310 308 307 307 306 307 307 307 308 308 308
317 323 320 315 320 319 317 324 317 316 327 324 320 323 321 321 321 320 318 318 318 317 317 322 323 324 326 321 319 322 322 323 322 320 318 317 319 320 315 313 313 313 315 317 316 314 315 321 323 319 319 320 317 313 311 313 317 320 316 312 311 309 314 322 318 312 311 309 311 313 316 322 320 314 313 310 307 307 307 306 307 307 307 307 307 308 308 308
318 320 319 318 320 317 319 327 322 319 325 320 316 318 319 320 320 319 319 318 319 319 319 321 318 319 322 318 319 322 319 319 320 318 320 319 320 319 315 313 313 313 316 317 315 314 316 320 322 321 323 322 318 315 313 313 316 316 313 312 310 308 313 320 318 314 312 313 315 314 314 322 319 308 306 307 306 307 307 307 307 307 307 307 307 308 307 307
320 320 320 319 320 318 321 325 324 325 326 321 321 322 319 319 319 319 320 319 320 320 321 323 318 315 318 317 320 321 317 318 318 316 319 319 317 316 314 314 314 313 314 315 315 316 315 317 320 322 324 323 321 322 321 319 319 317 315 312 310 311 312 312 312 313 313 313 315 315 316 322 319 309 307 307 307 307 307 308 307 306 306 306 307 307 307 306
319 319 319 318 318 318 320 320 319 324 326 323 325 324 320 319 319 318 319 319 319 318 320 322 318 316 319 317 319 322 318 317 317 317 318 318 319 317 312 313 314 313 314 313 312 315 315 318 324 326 323 321 322 324 324 323 319 315 315 313 311 313 313 310 311 315 314 310 310 316 320 319 315 311 310 310 310 310 308 307 307 307 306 306 306 307 307 306
318 320 319 318 317 316 316 315 315 320 323 323 323 320 320 322 318 316 319 319 319 319 318 319 317 318 320 319 321 324 319 316 317 319 319 320 323 318 312 314 314 312 316 315 312 316 318 318 322 326 326 324 324 325 321 319 318 317 316 315 313 311 311 312 313 315 316 312 313 318 316 312 313 312 311 312 314 313 309 307 308 307 306 306 306 306 306 306
319 321 319 319 318 316 316 315 314 315 317 319 320 319 321 324 320 317 319 319 319 319 317 318 320 320 321 320 321 321 318 318 318 318 319 320 321 317 313 314 313 314 320 317 312 319 323 319 318 321 324 323 323 323 318 315 318 319 317 317 316 311 309 311 313 313 312 312 317 319 311 310 315 317 314 314 315 313 307 306 308 308 306 306 306 306 306 306
318 319 316 316 317 317 318 317 315 314 314 316 319 319 320 324 322 320 320 319 319 319 318 320 322 322 322 320 318 318 319 320 319 318 318 318 319 319 316 314 313 314 318 315 313 320 325 320 315 317 321 324 323 321 319 318 318 318 318 318 318 313 309 310 313 311 310 313 317 315 310 312 318 320 318 315 312 310 308 307 308 307 307 306 306 306 306 306
317 318 315 315 316 316 316 315 313 314 317 318 320 320 320 323 322 319 318 320 322 321 318 320 322 323 324 321 317 320 321 320 319 319 320 317 317 319 318 317 315 313 315 317 315 316 319 319 318 317 320 324 323 319 318 318 318 318 318 316 315 314 310 310 310 307 307 310 311 308 309 313 315 315 316 312 307 307 307 308 308 307 307 307 306 306 306 306
317 317 315 315 315 314 315 314 313 318 320 317 318 318 318 322 322 319 317 319 323 322 318 321 323 323 324 322 319 321 323 321 320 319 319 318 318 319 320 321 318 314 316 320 318 314 313 317 320 319 320 324 322 318 318 318 318 319 318 312 310 309 308 308 308 306 306 309 308 305 308 314 311 307 307 307 306 307 307 307 308 308 307 306 306 306 306 306
316 316 314 315 316 314 314 313 312 318 322 318 318 319 318 320 318 317 319 318 317 321 321 321 322 322 322 321 322 323 321 319 320 318 317 318 319 319 318 317 317 317 319 319 318 317 315 316 319 319 320 324 321 318 320 319 315 316 318 315 312 310 311 311 310 308 309 313 312 307 311 321 315 305 304 306 306 306 307 308 308 308 307 306 306 306 306 306
315 314 313 314 315 313 313 313 312 316 318 316 317 318 316 316 314 314 319 318 315 318 320 318 318 320 322 322 322 322 318 317 319 318 317 318 317 316 316 314 315 318 322 320 318 319 320 322 323 319 319 323 320 317 320 319 317 320 322 321 318 314 312 311 309 308 308 312 316 314 317 323 314 306 309 311 306 305 307 308 308 308 307 307 306 306 306 306
Wind_Speed
20 20 20 20 20 20 19 17 16 16 15 13 12 11 10 9 7 7 6 5 5 7 9 9 8 7 7 7 8 8 9 10 8 7 6 4 2 3 5 6 8 10 11 13 11 7 5 3 2 2 1 1 2 3 2 2 4 3 3 4 2 1 2 4 5 4 3 1 4 3 8 9 5 6 11 11 16 22 22 21 20 20 20 17 14 12 10 9
20 20 21 21 20 20 19 18 17 16 15 14 13 12 11 10 8 7 6 5 6 8 9 8 8 8 7 7 7 8 10 8 7 8 7 4 2 3 5 7 9 11 13 14 13 10 6 3 2 2 1 1 1 2 2 3 5 3 3 4 1 4 3 4 5 6 3 2 4 1 6 7 6 6 7 6 7 16 18 15 19 23 19 17 15 13 11 9
20 21 21 21 21 21 20 18 17 17 16 15 14 12 11 10 9 7 6 6 7 7 8 8 8 8 8 7 8 9 9 5 7 9 7 4 2 3 5 8 11 12 14 14 14 12 9 6 3 3 3 4 2 2 2 3 4 1 3 3 4 6 3 5 5 5 3 2 2 1 5 7 5 6 8 9 6 10 9 7 13 18 17 17 16 13 12 9
20 21 21 22 22 22 20 19 18 17 17 17 16 13 11 10 10 8 7 6 7 7 8 7 7 8 8 8 8 10 8 4 6 7 5 3 3 4 6 9 12 13 14 15 13 11 10 9 6 6 7 6 3 2 1 2 4 1 4 2 5 5 2 6 7 5 3 2 0 3 6 7 5 7 11 13 8 4 3 7 12 16 17 17 16 13 12 10
20 21 21 22 22 22 21 19 19 18 19 18 17 14 11 9 9 9 8 7 7 7 7 7 7 7 8 8 9 10 7 3 5 6 3 1 4 5 7 10 12 13 15 15 12 10 11 10 9 8 7 5 5 3 2 0 4 1 2 3 6 6 3 8 10 5 3 3 2 4 6 4 7 11 9 7 6 3 5 12 18 19 18 15 14 13 12 11
20 21 21 22 22 22 21 20 19 20 20 19 17 15 11 9 8 8 7 7 6 6 6 5 5 6 7 9 9 10 6 3 5 6 1 3 5 5 8 10 11 13 15 15 12 11 12 12 10 6 4 3 4 2 4 1 6 1 1 1 6 6 1 7 9 6 4 2 2 4 6 8 14 12 10 11 9 10 14 18 21 19 18 16 15 13 13 13
20 21 21 22 22 22 21 20 20 20 20 19 17 14 11 8 6 6 6 6 6 5 5 5 5 5 7 9 9 8 5 3 5 7 1 6 7 5 8 9 10 12 14 15 13 12 13 15 11 6 4 3 2 3 5 5 5 2 2 3 2 4 2 4 6 4 4 1 2 6 7 9 13 8 10 15 13 17 20 20 21 19 18 17 16 15 15 15
20 21 21 22 22 22 21 20 20 20 19 18 17 14 10 8 6 5 6 5 5 5 4 4 4 5 6 9 10 7 5 4 5 6 3 7 7 6 6 6 8 10 12 13 13 13 13 14 11 6 3 3 3 4 6 7 4 4 1 3 1 2 2 2 4 4 4 4 5 11 12 12 18 17 12 12 14 21 21 20 21 20 19 18 18 17 15 15
20 21 21 22 22 22 22 21 20 19 18 17 16 13 10 8 6 5 5 5 4 4 4 4 4 5 6 8 9 6 5 5 4 6 7 7 6 5 5 5 6 8 9 10 12 12 13 13 11 6 2 2 4 4 6 7 2 1 0 2 3 2 4 4 6 6 5 5 9 15 15 15 21 20 11 7 16 20 20 21 19 19 19 18 18 16 15 15
21 21 21 22 22 23 22 21 20 18 16 14 14 13 12 9 6 4 4 3 3 3 3 3 4 5 6 9 8 4 4 5 4 4 6 6 4 2 5 6 5 6 7 8 10 11 12 13 12 9 2 3 6 3 5 6 1 4 1 3 6 6 8 5 5 5 5 5 11 15 10 9 9 8 4 7 17 20 21 21 17 19 19 18 18 16 16 16
21 22 22 22 23 23 22 21 20 16 13 12 13 13 12 10 7 5 3 2 2 2 2 3 5 5 7 10 6 3 4 5 3 3 4 5 4 2 3 5 6 6 5 6 8 10 11 11 13 10 2 3 5 2 3 5 2 3 2 3 7 8 12 11 5 6 6 5 12 16 10 11 7 4 8 15 18 20 22 20 18 19 19 18 17 16 16 16
22 22 22 22 23 23 22 21 18 14 11 11 12 13 12 10 8 6 4 3 2 1 1 3 4 6 9 9 4 1 4 3 2 4 4 4 4 2 2 4 6 7 5 5 7 8 8 9 12 10 4 3 4 2 3 6 2 4 5 4 7 7 8 11 7 8 6 4 5 9 8 9 6 5 12 17 18 19 22 20 18 18 18 17 16 16 17 15
23 23 23 23 23 23 22 20 15 12 12 11 11 12 11 9 8 7 6 5 3 2 2 3 5 7 10 7 3 2 3 2 2 3 3 2 2 2 3 3 5 5 4 4 5 7 7 8 11 9 5 2 2 1 2 5 3 3 6 5 4 6 5 9 9 8 6 6 7 3 4 5 2 7 15 15 16 19 21 19 17 17 17 16 16 16 16 15
24 24 24 23 22 22 21 18 13 11 12 11 11 12 11 9 9 9 8 7 5 4 3 4 6 9 9 5 2 3 2 3 4 3 2 2 2 3 4 4 5 4 3 3 4 5 6 8 11 8 3 2 3 2 2 5 5 2 4 3 3 4 3 8 8 6 4 6 7 4 3 3 3 7 16 17 15 18 18 16 15 15 15 15 15 16 16 16
24 25 25 23 22 22 20 15 10 11 11 10 11 11 10 9 10 10 10 9 7 5 5 5 6 9 9 3 1 3 2 2 3 2 2 2 3 3 5 6 5 4 2 2 4 5 6 8 9 5 2 4 4 3 2 5 5 3 3 2 3 3 2 7 6 5 2 3 9 6 3 2 4 8 15 18 15 13 14 14 13 14 15 15 15 16 17 16
24 25 25 24 23 22 19 13 9 11 10 10 11 11 10 7 7 9 9 10 8 5 6 6 7 8 6 2 2 3 5 6 4 3 4 4 3 4 6 7 6 5 4 4 6 5 6 6 4 4 3 4 4 4 4 4 4 4 3 1 3 2 1 3 3 6 1 1 8 6 3 2 2 9 15 17 15 11 9 11 13 13 14 15 15 15 16 16
25 25 25 24 22 21 18 11 9 10 10 11 11 10 9 5 5 5 6 10 7 5 7 6 7 7 3 2 3 6 10 10 7 4 4 4 3 4 6 8 8 8 8 6 5 3 2 2 2 1 4 4 2 4 5 3 3 4 3 2 2 0 1 2 2 6 7 5 6 7 5 3 1 9 15 13 13 11 8 10 13 13 14 15 15 15 15 15
25 25 24 24 22 21 17 11 10 11 11 11 11 10 6 4 3 2 6 11 7 5 5 5 6 3 2 4 5 8 11 10 6 4 5 4 3 5 6 9 10 11 9 3 4 4 2 2 3 1 4 4 3 5 3 2 2 2 1 2 1 1 1 2 2 3 7 7 6 8 7 4 5 6 10 10 11 12 11 12 13 13 14 15 15 15 14 14
24 24 24 22 21 20 16 11 11 11 10 12 14 10 4 4 3 2 8 10 4 3 2 4 5 0 2 7 8 9 10 9 5 4 4 3 4 4 4 8 9 8 7 3 4 6 3 3 5 3 3 3 1 3 4 6 6 6 4 4 3 1 2 3 3 2 4 7 5 6 7 6 6 5 5 8 11 12 11 11 12 13 13 15 14 14 14 14
22 23 22 21 20 19 15 10 10 11 10 12 16 9 4 9 4 3 12 8 3 4 4 5 6 4 6 7 8 9 8 6 5 3 1 2 4 2 2 6 5 6 6 1 2 4 3 4 3 2 4 4 5 4 4 3 5 6 4 4 3 2 1 2 2 3 3 6 4 3 7 6 5 3 3 8 11 10 10 10 10 12 13 14 13 14 13 14
20 21 20 19 18 18 14 9 8 10 10 12 16 12 10 11 5 6 14 7 4 9 7 5 6 7 7 6 8 9 6 5 4 2 1 1 4 2 2 5 4 5 5 2 1 2 4 5 1 4 6 4 2 3 5 5 5 5 4 4 1 2 1 2 1 3 2 5 1 1 6 5 3 4 4 8 9 6 9 11 10 10 12 12 13 13 13 13
18 18 18 17 17 17 14 8 5 7 8 10 14 13 13 11 6 7 9 7 10 10 6 6 6 6 6 6 7 5 4 5 4 1 1 1 5 4 2 5 5 2 4 3 2 4 5 2 4 4 2 5 6 4 6 6 6 5 3 3 1 2 2 3 3 4 5 4 3 2 6 3 2 2 4 7 6 3 7 8 9 9 9 11 12 12 12 13
17 17 16 16 16 16 12 6 3 4 4 7 11 13 12 10 7 7 6 6 10 9 7 6 5 5 6 6 4 2 2 2 2 2 3 3 4 3 2 4 4 3 5 4 4 4 3 2 5 2 5 7 7 6 7 6 4 3 2 2 2 3 1 1 3 4 5 3 4 5 5 1 4 2 3 4 6 7 9 10 9 9 8 9 9 10 11 12
15 15 15 16 15 14 11 4 1 3 3 5 7 10 11 9 7 7 6 4 4 6 9 7 5 4 6 6 1 1 2 3 1 2 4 4 3 3 2 2 3 4 4 3 6 6 3 2 2 6 7 6 7 6 7 6 4 2 2 3 2 3 2 3 2 2 4 5 4 6 4 2 3 1 2 1 3 8 10 9 9 10 9 8 8 8 10 10
14 14 14 15 14 13 9 2 1 4 4 4 5 9 12 10 8 5 4 1 2 7 8 6 6 4 5 5 1 1 1 2 1 3 3 5 4 2 1 3 3 3 2 2 6 6 2 2 2 6 6 6 7 5 3 4 2 4 2 4 4 4 3 2 2 4 4 4 2 3 2 3 3 0 3 3 2 1 5 6 8 9 8 7 8 9 8 9
12 13 14 15 15 13 7 2 4 5 3 3 5 10 11 9 8 4 2 3 1 5 6 5 5 4 5 3 3 1 1 1 2 2 2 5 5 3 1 2 3 2 1 3 4 3 1 4 4 6 6 7 7 3 1 4 4 2 3 3 2 2 3 4 4 4 2 2 3 2 3 3 3 1 3 4 2 3 4 5 7 7 7 7 9 9 8 8
10 12 13 14 15 13 8 5 6 5 4 6 8 11 9 7 7 3 2 5 2 4 4 4 4 4 6 3 3 1 1 1 1 1 3 4 3 4 3 2 2 2 2 3 3 0 0 6 7 6 6 6 5 3 0 4 5 1 4 1 4 2 3 5 6 4 2 3 2 5 4 2 1 3 4 3 2 5 5 4 6 9 7 9 10 8 7 8
9 12 13 12 13 12 9 7 6 4 6 9 11 11 7 4 4 2 4 4 3 4 2 4 4 6 8 4 3 0 2 0 2 1 3 5 3 5 5 1 3 1 3 4 3 3 1 2 2 4 5 4 2 1 3 3 2 3 3 3 5 3 3 4 5 3 2 2 1 6 3 2 3 4 4 2 3 5 5 4 5 8 8 9 10 8 8 7
9 11 12 12 10 9 8 7 6 7 9 11 11 9 4 2 1 2 5 2 3 3 1 4 6 8 9 3 1 3 2 1 3 2 1 5 4 5 5 2 5 3 4 5 5 2 1 2 5 6 5 1 2 4 3 4 0 2 2 4 4 5 4 4 5 3 3 3 2 5 3 1 3 4 4 3 3 4 4 3 3 8 10 9 9 8 7 6
9 11 12 11 8 7 7 7 8 9 11 12 10 6 3 1 2 4 3 0 1 2 3 5 5 7 9 5 3 6 3 2 3 3 4 7 6 7 7 3 4 5 5 7 5 1 2 0 2 4 3 2 4 2 2 3 1 0 4 4 5 5 5 4 3 4 4 2 4 4 0 2 2 3 2 0 1 1 2 2 2 7 10 9 8 8 7 6
8 9 10 10 8 8 8 8 9 10 12 12 9 5 2 2 4 5 1 2 1 3 3 4 4 6 8 4 3 6 4 4 5 4 5 6 7 7 6 3 3 5 5 6 4 5 6 4 1 2 2 1 3 2 1 4 4 4 4 4 3 3 4 4 4 4 4 1 4 4 1 4 1 3 3 2 3 3 2 1 1 6 8 8 8 7 6 6
8 7 7 7 7 8 9 10 11 12 12 11 7 3 2 2 4 2 1 3 2 2 2 2 3 4 4 3 4 5 3 4 6 5 4 2 4 5 3 2 1 3 4 2 2 4 4 2 4 3 2 5 5 1 3 5 6 5 5 5 3 2 4 3 3 2 1 2 2 1 1 1 1 3 3 3 4 3 1 3 5 6 6 5 6 7 7 6
7 5 5 5 7 8 10 12 13 12 12 9 5 2 5 5 2 2 2 3 1 2 1 1 3 3 3 4 5 5 3 3 4 4 3 2 4 3 2 1 2 3 1 1 1 3 2 4 7 4 4 5 5 4 2 4 4 4 3 3 3 2 3 1 3 1 2 2 2 2 1 1 1 2 2 3 4 2 5 9 10 8 4 1 5 8 8 6
5 5 5 5 8 9 11 13 13 13 12 7 2 4 6 4 1 2 1 3 2 1 2 2 3 4 5 4 2 3 3 3 3 3 3 3 4 3 3 4 3 3 3 2 1 1 1 3 4 2 3 4 3 3 3 2 2 1 3 5 3 3 4 1 3 2 2 2 3 4 1 1 1 1 2 4 4 4 8 10 10 7 3 3 6 9 8 6
4 5 5 6 8 10 12 14 13 13 11 5 4 6 5 2 2 1 2 3 2 2 2 3 4 5 5 3 2 2 3 2 3 4 4 3 2 0 1 3 3 3 4 2 0 1 2 2 5 3 3 2 2 1 3 4 3 1 2 4 2 2 4 1 2 3 1 0 2 2 1 1 1 1 2 4 4 5 8 7 4 4 7 8 8 9 8 7
4 4 4 6 8 10 13 13 12 13 10 3 6 5 2 3 2 2 2 2 1 2 2 4 4 4 4 4 3 4 4 2 3 4 3 2 1 2 1 3 2 3 4 3 1 1 2 2 5 4 3 3 3 1 2 2 0 0 3 2 2 3 5 3 1 1 3 2 2 2 1 2 2 3 1 3 3 3 5 5 4 6 8 9 9 9 10 9
4 3 4 7 9 11 13 12 11 10 7 5 6 2 2 2 3 4 2 2 2 1 3 2 2 2 1 2 3 5 5 3 2 3 1 1 1 2 1 2 2 1 2 3 1 2 3 1 5 2 3 1 2 2 4 4 2 2 1 2 2 2 4 3 1 3 4 1 3 2 1 2 1 2 1 3 5 4 4 3 3 5 8 10 10 10 11 10
4 2 4 7 10 12 11 11 10 7 5 6 4 1 1 1 3 4 3 3 2 1 5 2 0 1 1 0 2 4 4 2 2 2 1 1 1 2 0 1 1 2 1 4 2 1 4 1 6 2 2 4 5 4 3 6 5 5 3 2 2 2 1 1 2 1 1 1 3 2 2 2 3 3 2 4 6 6 4 3 3 6 9 11 11 10 10 10
4 1 4 7 10 11 10 9 9 7 7 5 2 1 1 2 4 6 7 3 1 3 3 2 1 2 2 2 1 3 2 1 1 2 2 1 0 1 0 1 1 4 2 4 3 1 3 3 3 4 2 3 5 4 0 4 5 5 3 2 2 3 2 1 1 1 2 1 2 2 2 2 3 4 5 7 7 7 6 4 5 9 11 10 9 9 10 11
3 1 2 6 9 8 7 8 9 9 6 2 2 2 1 2 5 9 10 4 1 2 1 3 2 2 1 1 2 1 1 1 2 2 1 1 0 2 2 2 1 3 3 4 4 1 2 3 1 5 4 3 2 0 3 3 1 2 3 3 3 1 1 1 1 1 2 2 2 1 2 4 4 3 6 8 7 7 8 7 7 11 11 9 9 10 10 11
2 1 2 5 7 6 5 7 8 6 3 1 1 1 1 2 4 9 12 7 2 2 1 3 3 2 2 1 1 1 1 1 1 1 0 1 1 1 2 3 4 1 2 4 3 1 1 2 2 2 3 1 3 4 3 5 4 3 2 1 2 1 2 3 1 3 1 2 2 3 2 5 4 2 4 7 7 9 11 10 9 11 11 10 11 11 11 11
1 1 2 4 6 4 4 4 4 2 3 1 2 3 3 3 2 6 11 9 5 3 3 3 3 2 3 2 1 1 2 1 1 1 1 2 3 3 2 2 4 2 2 1 1 1 3 3 3 0 1 3 5 5 1 3 5 5 2 2 3 2 4 5 1 3 0 2 1 3 1 5 4 2 3 5 9 10 11 11 10 11 11 12 12 12 12 11
2 1 2 5 5 3 4 3 4 3 1 2 3 3 3 2 1 3 6 7 5 4 4 2 1 1 1 1 1 2 2 1 1 1 1 2 3 3 3 4 3 3 4 1 2 1 2 3 3 1 3 3 5 4 2 2 4 4 2 2 3 1 3 5 4 2 2 0 0 1 2 5 4 4 5 1 6 7 8 11 11 11 12 13 13 13 13 10
3 3 4 6 5 1 2 2 1 2 4 4 4 2 2 1 1 3 3 3 3 2 2 1 1 0 0 1 2 2 2 2 1 2 1 1 2 3 4 7 4 2 2 1 1 2 1 1 3 3 4 5 6 5 5 4 2 1 0 1 2 3 5 3 1 3 1 2 3 3 3 6 4 5 6 3 1 3 8 12 12 12 13 14 14 14 12 9
2 2 4 8 6 4 4 3 2 1 2 4 3 4 3 1 1 2 1 1 2 1 1 1 1 1 1 2 3 1 1 1 0 1 0 1 3 2 1 6 6 2 1 2 5 5 2 1 3 5 2 1 1 2 3 2 1 0 1 1 1 4 5 3 1 3 1 2 4 4 4 5 5 4 4 3 1 3 9 12 13 13 14 15 15 14 12 9
2 1 2 5 7 9 9 6 4 2 0 2 2 2 3 1 2 3 1 1 3 3 1 1 1 1 3 4 3 3 2 1 1 1 1 2 3 2 3 3 6 4 1 5 6 4 3 1 2 5 5 5 5 6 4 3 1 1 2 2 2 3 4 5 3 1 3 2 2 5 5 2 5 5 4 5 4 4 8 12 14 15 14 14 15 14 11 9
2 1 1 2 4 6 8 9 9 4 1 1 1 2 2 2 3 3 2 1 3 3 2 2 3 2 2 3 2 1 2 2 2 0 1 2 4 3 4 1 3 2 2 5 3 3 4 0 2 5 5 6 6 6 3 2 3 4 4 3 3 3 5 6 3 3 4 3 4 6 4 2 6 7 6 7 5 5 9 15 17 15 14 14 14 13 12 9
2 2 2 2 1 0 2 6 8 5 2 1 1 2 2 3 3 2 1 3 4 3 2 3 4 2 1 2 2 0 2 3 3 1 1 1 2 3 4 2 1 2 2 3 2 3 4 1 2 3 3 5 4 5 3 3 2 3 5 5 5 6 7 7 6 5 7 5 5 5 6 5 7 6 6 8 9 10 14 18 17 13 13 14 13 13 12 11
3 4 3 3 1 1 1 4 5 3 3 2 1 2 3 2 3 3 2 3 4 3 3 1 3 3 1 2 4 1 1 0 2 3 1 1 1 1 2 2 2 2 3 3 3 2 3 1 2 2 3 5 4 4 4 4 2 1 3 4 5 7 9 7 3 3 4 4 4 3 4 7 8 7 8 8 9 10 12 14 14 12 13 15 14 13 13 12
4 3 2 2 2 2 3 4 3 2 3 3 2 2 1 0 2 4 2 1 1 3 2 1 4 4 1 3 4 1 4 6 4 3 3 2 1 1 2 2 2 1 3 2 1 2 1 2 1 3 2 5 4 2 1 1 3 4 3 2 2 5 4 2 1 2 2 4 3 3 2 7 7 9 10 9 7 7 8 11 13 12 14 14 13 13 13 13
4 3 2 3 2 3 4 3 2 3 2 3 1 1 1 1 2 3 3 3 3 3 2 2 3 1 2 2 1 4 6 7 6 5 5 4 4 4 3 3 4 2 2 1 1 1 2 1 1 4 2 4 3 4 4 3 2 3 6 3 5 6 4 3 3 4 5 4 3 3 1 6 6 6 6 5 6 8 11 13 13 13 14 15 14 14 14 13
3 2 2 2 1 2 2 2 3 3 0 1 1 2 2 3 4 2 1 3 2 1 3 3 3 2 2 3 3 5 4 4 6 9 9 10 11 10 9 7 6 5 2 2 1 1 3 3 1 2 1 4 4 3 2 3 5 5 6 5 8 5 3 3 3 5 7 7 6 4 5 6 4 2 4 4 5 8 13 15 15 15 16 16 15 14 13 12
Wind_Direction
5 4 3 2 1 360 359 359 359 359 355 347 338 337 336 333 330 332 335 328 331 340 344 344 347 346 340 336 334 343 353 1 14 18 31 58 108 116 91 80 60 49 46 44 55 79 104 92 58 55 41 149 54 46 78 152 130 89 87 82 78 157 123 161 184 188 144 216 291 35 105 117 125 106 93 89 84 88 86 82 91 97 99 104 107 109 107 113
6 4 3 1 0 360 359 357 356 355 354 350 341 334 329 328 328 327 327 324 328 332 336 340 344 345 349 348 336 342 350 4 44 53 56 66 150 136 80 64 48 43 40 39 47 54 66 70 65 69 51 81 61 76 87 151 148 104 98 89 160 204 194 183 186 195 153 147 243 89 96 103 136 149 112 94 66 86 87 78 93 94 94 104 105 105 105 107
5 4 3 2 0 359 359 357 355 352 351 349 343 334 325 322 322 324 323 321 327 329 332 337 339 341 347 347 337 344 353 20 62 56 54 60 139 130 72 56 45 42 38 37 38 39 46 40 44 87 75 60 66 130 91 145 167 125 96 83 233 216 227 233 213 195 171 149 230 3 64 68 105 151 127 125 86 75 96 101 100 98 99 101 99 99 100 97
4 4 3 2 1 360 359 358 356 352 349 346 341 335 325 318 317 320 321 321 327 329 330 332 335 339 341 346 344 346 358 37 52 46 55 63 127 119 73 53 45 43 38 36 37 42 43 43 70 85 74 54 38 130 102 159 186 179 132 153 222 193 160 219 216 201 194 154 192 19 60 55 66 118 128 129 105 64 115 126 120 114 107 101 99 93 90 90
4 3 2 2 1 0 359 358 356 352 349 345 340 336 326 318 317 317 319 322 327 329 327 327 332 336 338 346 344 346 7 50 22 37 71 81 143 119 67 52 50 48 41 41 45 52 48 54 81 79 75 53 33 90 5 294 174 165 175 189 181 167 162 203 206 208 203 153 123 54 54 57 79 83 90 101 99 133 142 124 122 116 110 104 100 95 89 87
3 1 1 1 0 360 358 357 355 353 350 346 342 338 329 320 317 318 319 320 324 328 324 324 331 335 340 343 343 350 18 72 19 34 78 197 160 115 64 57 56 51 43 47 56 60 56 59 73 64 69 65 48 64 2 93 164 146 308 195 168 180 210 199 202 221 216 148 124 93 74 92 90 67 55 64 76 121 127 121 118 110 108 104 99 95 85 78
1 0 359 358 359 358 357 356 355 354 352 348 345 342 336 325 321 324 324 322 324 324 320 324 329 335 340 344 349 356 20 61 27 26 329 192 158 95 64 59 56 53 47 52 55 56 54 53 58 53 61 61 28 9 35 107 139 83 36 17 160 210 302 201 198 219 208 69 84 104 86 88 94 86 70 71 89 120 123 118 114 109 105 101 96 90 83 76
360 359 358 357 357 356 355 355 355 355 352 349 348 348 344 333 326 329 330 327 322 317 320 323 325 338 344 349 359 7 31 38 27 40 89 168 139 79 59 55 55 53 52 54 50 49 46 43 43 38 65 62 11 4 50 82 68 56 104 345 307 244 334 167 167 179 166 82 83 86 78 87 102 108 85 73 106 121 123 118 113 110 103 99 94 89 85 80
358 357 357 356 356 354 354 354 355 357 354 354 358 359 357 347 335 331 328 325 317 310 315 316 323 339 347 352 1 21 42 25 21 57 91 137 128 74 45 45 58 56 57 52 48 47 40 38 31 24 87 75 28 18 40 57 39 346 213 0 6 353 28 136 159 154 142 104 97 91 86 96 104 103 77 85 121 123 123 116 112 110 104 100 95 93 91 87
357 356 356 355 355 354 353 353 355 358 358 1 7 8 7 3 355 339 324 319 314 303 307 317 326 336 347 350 2 46 45 27 29 45 86 125 141 93 40 40 45 49 57 49 47 45 37 34 20 15 59 48 25 23 42 54 313 302 258 85 43 44 51 85 144 103 91 92 98 106 96 75 95 108 107 143 133 128 124 115 114 111 104 101 97 95 92 85
357 356 355 355 354 353 351 352 356 360 4 6 3 2 4 6 10 9 355 345 336 309 312 323 328 334 341 342 350 71 43 30 40 40 96 123 135 123 43 28 17 23 48 60 60 42 30 25 9 8 23 8 359 358 47 23 336 334 139 113 18 42 53 46 64 31 31 69 88 103 82 38 44 101 147 154 141 133 126 118 116 110 103 102 97 92 87 81
358 357 356 355 354 352 350 353 359 4 8 4 353 352 356 2 16 31 38 38 41 1 340 337 336 337 339 343 350 41 27 30 54 73 106 123 125 124 22 10 3 5 14 43 58 32 19 12 2 0 356 355 348 12 24 354 40 65 77 98 353 24 46 20 14 359 15 49 57 90 62 16 18 94 138 147 143 135 125 120 117 111 107 104 98 93 89 82
358 358 357 355 353 352 350 354 3 9 7 359 351 355 0 6 25 47 57 59 56 36 12 350 344 337 334 346 0 326 350 32 86 83 91 97 99 82 25 14 6 11 6 11 30 8 360 356 353 351 350 0 343 347 338 352 82 69 40 84 4 15 19 360 2 350 25 24 345 70 69 329 321 125 142 147 143 134 122 121 120 116 114 108 104 98 92 83
359 359 358 356 354 352 351 357 9 11 2 357 357 2 7 19 42 59 61 60 52 31 11 353 354 347 335 341 354 314 333 58 80 73 54 35 25 33 39 25 4 12 20 17 11 349 346 342 342 346 352 349 333 339 343 7 56 53 15 47 31 47 322 331 0 3 42 21 5 97 127 250 222 157 151 151 145 133 124 127 127 123 120 112 106 96 88 80
357 358 358 357 355 353 354 0 13 9 359 356 358 1 8 28 52 61 59 50 39 24 6 352 355 348 336 346 11 309 312 18 42 32 352 341 345 358 25 28 14 7 10 2 348 334 326 324 335 347 338 343 3 36 25 2 22 43 49 336 349 77 302 313 357 19 83 31 33 84 151 194 197 181 159 151 145 134 130 137 136 130 123 113 104 93 87 81
355 354 356 357 355 353 354 3 14 4 357 353 351 357 8 25 45 53 48 28 19 14 359 344 344 343 338 6 38 349 345 347 345 332 317 318 332 352 8 14 11 358 333 324 324 310 306 319 352 14 7 20 49 70 49 15 359 6 82 189 293 64 5 323 0 6 32 85 25 45 149 153 212 180 161 153 145 137 140 147 144 137 125 115 107 97 91 85
352 351 351 354 356 353 353 5 10 0 358 353 349 352 3 20 33 43 30 7 358 343 339 327 324 330 340 24 22 6 2 354 343 333 329 324 334 353 357 353 345 333 324 326 338 323 306 355 66 32 31 58 77 77 59 23 341 324 35 103 263 218 29 327 325 354 26 70 42 40 90 84 27 152 155 158 151 149 166 170 155 142 129 119 112 102 95 89
347 348 347 351 355 352 352 2 2 359 355 351 349 340 346 21 10 13 4 349 332 320 329 336 340 339 351 357 355 350 348 346 336 329 338 340 345 348 346 336 324 322 330 6 47 50 80 45 67 70 17 27 30 75 103 216 186 205 184 117 258 280 249 287 281 321 25 60 84 77 81 68 52 107 141 158 163 165 182 182 159 143 134 124 115 108 101 94
342 343 343 347 354 353 350 353 358 0 352 353 352 329 306 353 330 294 349 345 332 333 328 339 353 102 270 323 341 339 333 336 334 326 338 1 6 352 335 326 317 334 360 37 24 32 79 47 47 52 347 330 302 123 163 204 171 167 174 146 148 153 241 244 268 285 78 71 60 93 112 108 90 81 107 147 170 177 188 187 161 146 138 129 122 116 110 101
338 339 340 344 353 353 349 349 359 2 357 2 1 352 354 358 349 319 344 1 63 351 322 316 317 279 283 313 341 340 331 338 343 336 3 44 17 353 314 326 336 25 29 1 326 10 63 62 63 210 236 241 238 189 147 144 139 132 113 112 144 148 251 273 283 300 99 87 17 76 116 101 99 78 77 145 168 179 187 187 166 154 145 139 133 125 117 108
337 337 337 343 352 354 350 348 0 7 11 11 11 35 51 22 22 330 338 355 9 339 326 317 304 286 296 323 342 342 340 359 8 339 209 86 16 349 334 2 37 43 8 293 238 15 57 81 106 244 219 203 236 169 123 92 86 89 104 113 114 170 220 287 262 311 10 97 51 82 101 67 57 62 70 133 155 187 197 186 172 166 158 151 143 133 125 113
338 337 337 343 351 355 350 347 5 14 20 14 17 46 52 29 11 329 330 316 317 334 337 320 305 293 311 331 337 344 349 5 27 49 167 42 6 352 3 44 64 42 351 6 55 30 44 65 287 282 172 97 52 57 89 87 82 77 101 124 149 235 239 297 314 345 14 95 169 165 106 70 350 29 62 106 133 202 231 208 184 180 174 163 152 139 128 116
340 338 338 343 352 355 348 344 5 5 10 11 23 41 34 15 353 325 316 293 304 339 360 338 318 312 339 349 340 0 352 343 7 62 68 24 5 19 55 62 54 16 2 40 107 96 66 304 295 358 80 77 56 32 55 68 60 78 100 113 223 259 156 247 303 354 18 72 149 140 109 37 332 14 71 101 149 186 237 242 207 189 185 178 165 143 127 116
342 340 340 344 352 358 349 333 0 353 349 359 17 25 10 356 344 314 301 286 286 341 1 353 339 330 352 360 6 89 320 294 310 72 56 27 30 40 41 71 57 24 5 57 115 118 129 268 345 57 56 72 77 34 47 67 11 340 165 144 200 259 196 199 246 33 23 26 88 105 79 339 339 45 172 227 181 191 219 224 197 189 184 189 183 148 128 118
345 340 340 346 351 358 358 342 8 345 333 341 348 1 358 344 341 322 304 316 276 328 357 2 351 347 347 347 196 165 280 280 56 81 43 37 56 45 19 60 50 19 8 100 93 92 104 311 27 72 52 64 82 47 48 105 42 327 232 180 207 234 220 200 71 65 43 6 356 76 91 285 314 281 229 292 347 185 191 164 165 180 176 188 184 151 136 129
348 339 340 348 349 357 14 19 3 359 350 355 343 350 351 338 345 335 321 56 354 323 352 358 358 357 343 326 207 196 347 328 90 93 37 49 52 61 84 29 41 51 180 148 94 93 63 10 58 92 73 67 70 56 99 120 97 4 277 204 193 182 166 162 129 99 105 226 294 50 145 249 309 220 247 305 354 51 73 104 129 142 149 170 168 154 150 139
348 338 341 349 349 355 13 5 357 10 9 354 341 345 343 335 349 325 348 50 352 312 335 330 345 347 338 315 223 179 85 302 127 104 45 64 38 61 90 327 36 34 326 109 79 204 102 32 44 60 66 76 65 40 206 128 106 317 283 107 92 110 174 171 142 126 163 184 338 18 102 149 273 229 263 310 45 54 41 46 88 107 129 157 160 159 152 135
348 338 339 349 351 352 4 6 3 7 352 340 336 341 338 330 343 340 76 79 291 312 2 324 332 330 326 299 257 178 149 178 100 141 47 68 52 70 86 56 136 99 348 98 135 251 170 73 101 101 72 74 90 254 226 142 109 271 263 89 95 133 166 135 113 109 92 114 313 336 32 110 253 267 305 0 79 52 32 25 68 102 123 145 155 155 141 128
347 337 336 347 353 354 7 15 13 3 346 339 339 344 345 340 4 68 76 97 285 325 345 327 338 327 330 324 285 14 94 56 64 181 63 60 55 75 89 104 135 118 18 78 134 206 84 156 178 133 89 79 199 236 202 134 301 258 149 83 69 69 66 77 93 105 61 73 225 298 9 110 265 300 339 24 81 48 21 10 63 110 123 139 149 143 135 134
342 336 336 345 356 5 17 16 6 356 346 345 350 356 13 57 87 75 57 192 270 310 279 314 331 330 349 18 14 6 45 49 41 98 70 55 58 77 100 113 99 88 26 35 74 312 326 324 152 91 74 189 177 194 121 113 297 83 89 44 38 35 35 50 56 87 63 13 253 273 338 140 273 296 299 317 162 292 317 324 54 109 124 139 140 136 144 155
338 337 336 346 2 9 10 6 358 353 348 350 356 5 41 80 71 86 109 250 265 318 319 320 324 353 11 29 6 357 20 15 8 50 54 37 40 47 70 80 45 52 25 15 19 337 353 29 347 5 38 77 117 136 38 44 44 75 68 53 67 357 5 28 1 41 73 307 263 267 204 138 151 274 268 258 252 268 279 267 117 117 128 139 141 150 165 172
339 342 343 358 17 13 7 1 354 351 349 350 357 13 105 70 28 84 249 310 308 307 345 326 312 357 10 20 15 352 1 7 3 39 59 37 41 31 39 119 90 34 5 335 343 349 13 14 310 312 21 42 70 95 340 7 32 56 53 60 87 356 8 22 330 2 113 246 252 283 281 125 177 246 266 265 257 274 71 113 114 111 116 136 161 177 184 185
343 5 18 24 28 15 6 0 353 352 351 350 357 44 91 77 31 224 264 331 270 254 336 333 315 2 44 45 11 339 5 17 355 29 56 64 61 34 336 215 127 86 47 201 15 3 344 316 337 0 359 17 67 93 358 338 9 38 75 88 89 84 63 338 278 301 281 258 283 301 301 346 288 259 264 226 224 205 98 101 104 106 106 152 199 197 195 191
8 51 60 40 23 8 2 358 352 353 355 359 46 69 68 77 225 233 275 278 263 303 14 356 344 14 43 56 342 329 37 31 1 34 25 34 56 23 334 331 14 83 101 105 102 103 122 304 333 2 318 349 53 122 145 136 63 38 154 126 107 138 135 225 234 214 253 259 301 311 350 89 279 282 222 195 182 137 120 115 110 121 166 229 226 208 198 193
58 77 57 32 16 4 2 359 354 356 358 12 78 68 78 139 246 275 253 260 284 332 338 7 44 41 15 352 330 11 61 19 19 48 29 42 97 132 317 308 338 79 101 79 302 142 103 244 268 289 290 16 40 189 139 97 70 309 138 89 57 175 141 124 191 180 197 287 330 324 312 266 292 303 220 173 139 128 147 154 153 197 228 230 223 211 202 201
99 90 46 26 12 6 6 3 1 0 357 49 78 57 119 196 211 184 213 259 316 312 333 358 44 55 354 325 333 357 22 26 39 50 24 30 172 210 232 261 275 101 123 121 173 179 85 275 285 336 4 52 66 134 96 71 205 343 52 57 240 170 120 108 188 27 57 73 309 304 282 305 349 341 301 146 129 131 159 183 206 213 214 207 202 205 206 208
131 102 39 22 14 11 8 7 11 5 6 71 85 88 211 213 186 189 237 303 282 313 75 53 12 52 351 330 323 330 356 24 45 54 45 358 276 233 282 273 242 134 171 153 171 202 128 286 298 13 78 1 17 61 47 45 98 87 45 225 200 96 82 101 126 10 36 65 280 305 271 270 266 300 309 145 161 173 180 207 215 197 193 193 196 201 205 214
150 112 31 23 17 13 12 12 15 20 45 71 72 170 212 238 209 231 294 310 266 54 83 115 225 102 159 112 305 312 356 20 8 41 95 11 281 215 311 281 231 356 271 152 110 15 108 86 298 292 171 295 343 41 21 6 45 88 129 177 115 88 356 27 76 48 29 278 291 309 287 251 210 219 213 177 179 185 205 237 229 202 196 195 199 205 213 223
164 163 15 18 15 17 22 22 26 45 66 68 53 229 218 259 271 302 324 320 195 87 83 170 159 69 139 151 227 290 0 21 350 56 113 127 263 225 225 231 255 10 13 146 133 13 95 111 282 285 263 312 4 50 102 326 4 49 74 24 30 117 151 50 69 134 141 194 268 305 309 270 226 210 188 191 196 189 198 223 220 209 203 203 213 220 225 227
181 213 3 12 15 21 28 37 49 59 66 88 186 218 255 269 296 332 351 354 176 90 73 187 137 81 179 182 199 231 23 104 147 101 121 137 63 278 249 190 195 4 25 89 105 89 61 89 222 294 336 14 19 88 181 185 8 27 37 11 2 40 51 80 96 79 105 144 195 235 290 267 251 213 180 192 203 196 194 202 210 211 209 214 227 230 226 220
191 285 343 3 13 18 36 52 54 57 79 120 194 242 297 296 302 337 2 20 63 63 93 160 144 139 164 149 206 205 45 43 98 98 213 179 117 265 263 187 179 215 35 56 62 103 124 99 130 300 359 55 244 265 217 184 165 138 124 126 144 93 65 89 24 324 86 129 170 159 236 269 261 240 208 198 193 197 201 201 204 209 214 223 228 225 219 215
155 40 354 2 4 12 56 66 32 37 107 92 312 269 282 311 307 333 358 19 39 38 55 111 126 139 160 155 179 169 122 63 29 90 165 228 180 177 250 209 181 167 93 65 305 175 151 106 91 88 237 220 263 295 292 161 138 121 110 124 135 101 97 117 179 274 122 68 100 137 222 272 260 275 273 212 191 195 203 207 208 210 218 225 222 216 214 214
92 68 17 5 358 26 70 54 354 358 39 315 302 261 262 288 333 341 356 16 21 15 26 38 61 84 179 173 137 161 152 140 191 187 221 249 229 222 216 182 153 107 95 89 275 179 109 80 78 332 302 302 310 325 359 56 93 101 48 78 113 63 102 139 171 177 133 45 88 99 290 270 273 332 346 231 184 189 201 212 215 215 219 222 218 216 215 218
74 55 34 20 0 3 93 87 8 334 310 325 348 348 306 257 45 16 358 7 10 25 45 13 8 80 272 104 106 157 170 128 198 235 212 207 246 272 211 179 157 118 136 203 185 154 130 71 97 64 357 342 343 346 338 339 23 131 35 62 94 85 96 118 133 89 75 215 150 125 249 258 279 336 356 15 117 208 218 218 220 221 223 224 220 218 219 223
62 48 47 42 38 63 90 106 127 170 305 346 1 351 348 333 36 25 10 33 30 73 128 329 325 96 31 52 65 45 80 98 249 256 271 265 267 308 196 195 198 206 225 175 150 139 129 124 115 108 118 232 275 277 265 273 301 317 168 159 119 105 119 149 112 72 18 222 151 157 226 262 293 321 334 339 338 241 228 222 225 227 227 230 224 220 223 229
52 47 25 32 46 68 77 63 57 106 98 20 18 349 2 330 309 346 39 96 27 31 86 339 334 60 43 43 42 1 346 33 43 134 166 263 266 318 11 228 221 233 153 138 141 124 100 107 136 138 163 189 199 225 224 161 136 251 234 213 188 136 123 117 104 126 197 175 191 218 207 256 285 277 278 269 249 242 233 225 226 227 228 229 224 222 227 235
63 59 354 8 25 54 66 43 28 33 89 93 53 327 332 305 312 344 33 84 27 33 64 35 28 54 40 42 56 338 315 347 16 124 190 243 261 299 345 305 219 245 128 130 128 91 91 63 182 154 193 211 199 222 231 144 188 216 214 216 194 162 128 124 155 208 158 117 291 254 186 180 258 246 236 244 244 243 237 228 225 227 228 225 223 226 228 237
72 96 81 76 7 311 56 21 6 12 52 122 264 324 349 348 344 340 330 357 23 50 61 17 14 38 110 124 120 112 332 352 343 304 198 264 294 337 347 328 312 348 86 96 37 86 111 225 214 166 246 252 222 236 222 184 223 204 188 201 184 166 169 178 207 203 151 157 250 233 172 200 248 247 226 222 219 222 227 226 224 226 227 224 225 225 226 239
100 112 86 74 116 206 351 341 341 26 55 24 358 13 22 8 334 287 274 353 359 8 54 39 305 314 271 142 124 132 258 209 303 294 225 194 284 357 353 302 309 4 76 80 28 81 121 245 228 145 315 299 278 262 207 186 242 239 211 224 192 177 184 187 213 213 178 209 233 186 194 239 250 242 237 238 232 231 233 227 224 226 225 223 226 226 230 244
127 133 106 99 100 34 356 340 356 64 27 12 32 7 6 170 296 299 277 145 316 322 39 112 270 283 257 136 124 201 232 181 180 247 197 154 303 230 189 223 220 34 50 84 35 53 121 262 235 92 0 305 303 334 76 149 226 236 282 323 132 153 170 168 165 184 214 265 242 164 240 274 260 237 242 258 251 233 230 222 221 226 225 223 225 227 236 248
142 138 119 130 109 13 359 351 46 86 31 15 67 310 339 244 290 309 277 228 221 242 241 215 240 267 41 62 160 248 241 190 191 239 223 214 249 233 226 224 185 126 41 151 151 90 122 236 29 72 33 280 307 10 4 13 15 283 289 270 164 154 166 199 205 186 181 184 154 122 240 266 259 232 230 249 232 219 222 219 217 222 222 223 228 232 241 249
153 136 106 112 107 4 20 16 51 84 162 266 242 258 265 288 318 354 300 282 279 278 282 227 172 110 18 332 287 276 277 254 265 283 279 269 264 254 253 245 204 178 166 152 129 137 136 136 146 106 143 266 303 2 355 20 21 318 278 213 180 188 203 211 242 228 196 156 134 164 222 237 244 188 176 208 218 219 226 223 219 219 219 223 230 239 248 252